Location: ???? ???
(30.5005°N, 60.5936°E)
Time: 13:13:20
(UTC+00:00)

STARLINK-1022 - Pass Details

Date: 07 June 2020
Orbit: 549 x 550 km, 53.0° (Epoch: 07 July)

Event Time Altitude Azimuth Distance (km) Brightness Sun altitude
Exits shadow 00:29:46 - 216° (SW) 2,261 6.2 -5.6°
Reaches altitude 10° 00:30:54 10° 214° (SW) 1,808 5.7 -5.4°
Maximum altitude 00:34:59 72° 131° (SE) 577 3.8 -4.6°
Drops below altitude 10° 00:39:06 10° 47° (NE) 1,817 7.9 -3.8°
Sets 00:41:21 0° 45° (NE) 2,713 9.0 -3.4°
